Flag for Germany Weather past 2 weeks in Arnstadt, Thuringia, Germany

Now
69 °F

Scattered clouds.


Feels Like: 69 °F
Forecast: 55 / 73 °F
Wind: 7 mph from West

Location: Erfurt-Bindersleben

Current Time: May 4, 2015 at 4:04:33 PM

Latest Report: May 4, 2015 at 3:00 PM


Visibility: 47 mi

Pressure: 29.81 "Hg

Humidity: 48%

Dew point: 49 °F

Location of ArnstadtLocation

Historic Weather in Arnstadt — Graph

°F

Arnstadt temperature yesterday

Maximum temperature yesterday: 59 °F (at 6:00 PM)
Minimum temperature yesterday: 45 °F (at 6:00 AM)
Average temperature yesterday: 53 °F

Past Weeks' High & Low Weather Summary

 TemperatureHumidityPressure
High69 °F (May 4, 3:00 PM)100% (Apr 23, 5:00 AM)30.42 "Hg (Apr 23, 5:00 AM)
Low29 °F (Apr 23, 4:00 AM)23% (Apr 21, 7:00 PM)29.57 "Hg (Apr 27, 8:00 AM)
Average50 °F68%29.98 "Hg
* Reported Apr 19 3:00 PM — May 4 3:00 PM, Arnstadt, Weather by CustomWeather, © 2015

Note: Actual official high and low records may vary slightly from our data, if they occured in-between our weather recording intervals... More about our weather records

Advertising

Arnstadt weather history for previous 24 hours

 ConditionsComfort  
Time TempWeatherWind HumidityBarometerVisibility
3:00 PM
Mon, May 4
69 °FScattered clouds.7 mph48%29.81 "Hg47 mi
2:00 PM68 °FPartly sunny.6 mph55%29.82 "Hg47 mi
1:00 PM65 °FPartly sunny.7 mph68%29.82 "Hg47 mi
12:00 PM65 °FScattered clouds.8 mph67%29.81 "Hg47 mi
11:00 AM63 °FPartly sunny.8 mph71%29.83 "Hg37 mi
10:00 AM61 °FPartly sunny.3 mph81%29.81 "Hg31 mi
9:00 AM59 °FOvercast.3 mph85%29.81 "Hg31 mi
8:00 AM58 °FPartly sunny.5 mph87%29.80 "Hg31 mi
7:00 AM54 °FPartly sunny.3 mph94%29.79 "Hg31 mi
6:00 AM53 °FPartly sunny.3 mph94%29.77 "Hg28 mi
5:00 AM54 °FPassing clouds.3 mph91%29.75 "Hg19 mi
4:00 AM56 °FPassing clouds.6 mph91%29.74 "Hg25 mi
3:00 AM56 °FPassing clouds.5 mph92%29.71 "Hg25 mi
2:00 AM58 °FPassing clouds.7 mph91%29.70 "Hg25 mi
1:00 AM57 °FPassing clouds.6 mph94%29.70 "Hg25 mi
12:00 AM56 °FPassing clouds.5 mph95%29.70 "Hg25 mi
11:00 PM
Sun, May 3
55 °FOvercast.3 mph96%29.70 "Hg22 mi
10:00 PM56 °FLight rain. Overcast.6 mph97%29.69 "Hg19 mi
9:00 PM56 °FLight rain. Overcast.5 mph98%29.67 "Hg16 mi
8:00 PM56 °FLight rain. Overcast.5 mph96%29.68 "Hg9 mi
7:00 PM58 °FLight rain. Overcast.5 mph89%29.68 "Hg10 mi
6:00 PM59 °FOvercast.5 mph78%29.68 "Hg19 mi
5:00 PM58 °FOvercast.6 mph81%29.70 "Hg22 mi
4:00 PM58 °FOvercast.7 mph78%29.73 "Hg22 mi
Weather by CustomWeather, © 2015

See weather overviewHow to use our weather pages